Needles, CA

10:14 AM PDT on April 28, 2017 (GMT -0700)
Needles

Weather History for KEED - November, 2011

Change the Weather History Date:

Sunday, November 27, 2011

  Actual Average Record
Temperature  
Mean Temperature 64 °F 57 °F  
Max Temperature 73 °F 68 °F 84 °F (1904)
Min Temperature 52 °F 46 °F 31 °F (2010)
Degree Days  
Heating Degree Days 1    
Cooling Degree Days 0    
Growing Degree Days 14 (Base 50)    
Moisture  
Dew Point 14 °F    
Average Humidity 16    
Maximum Humidity 23    
Minimum Humidity 10    
Precipitation  
Precipitation 0.00 in 0.02 in 0.62 in (1919)
Month to date precipitation 0.36  
Year to date precipitation 4.07  
Sea Level Pressure  
Sea Level Pressure 30.32 in    
Wind  
Wind Speed 6 mph (NNW)    
Max Wind Speed 9 mph    
Max Gust Speed -    
Visibility 10 miles    
Events      
T = Trace of Precipitation, MM = Missing Value Source: NWS Daily Summary

Daily Weather History Graph

Daily Weather History Graph

Search for Another Location

Airport or City:

Trip Planner

Search our weather history database for the weather conditions in past years. The results will help you decide how hot, cold, wet, or windy it might be!

Date:

Astronomy

Nov. 27, 2011 Rise Set
Actual Time 6:23 AM PST 4:28 PM PST
Civil Twilight 5:56 AM PST 4:55 PM PST
Nautical Twilight 5:25 AM PST 5:26 PM PST
Astronomical Twilight 4:54 AM PST 5:57 PM PST
Moon 8:51 AM PST (11/27) 7:11 PM PST (11/27)
Length of Visible Light 10h 59m
Length of Day
10h 04m
Waxing Crescent, 9% of the Moon is Illuminated
Nov 27
Waxing Crescent
Dec 2
First Quarter
Dec 10
Full
Dec 17
Last Quarter
Dec 24
New

Hourly Weather History & Observations

Time (PST) Temp. Dew Point Humidity Pressure Visibility Wind Dir Wind Speed Gust Speed Precip Events Conditions
1:56 AM 60.1 °F 12.9 °F 16% 30.33 in 10.0 mi NW 4.6 mph - N/A   Clear
3:56 AM 57.0 °F 15.1 °F 19% 30.34 in 10.0 mi WNW 4.6 mph - N/A   Clear
4:56 AM 55.9 °F 14.0 °F 19% 30.35 in 10.0 mi NNW 5.8 mph - N/A   Clear
5:56 AM 55.9 °F 14.0 °F 19% 30.37 in 10.0 mi NW 6.9 mph - N/A   Clear
6:56 AM 55.9 °F 12.9 °F 18% 30.39 in 10.0 mi NW 8.1 mph - N/A   Clear
7:56 AM 61.0 °F 14.0 °F 16% 30.41 in 10.0 mi North 8.1 mph - N/A   Clear
8:56 AM 63.0 °F 14.0 °F 15% 30.41 in 10.0 mi North 8.1 mph - N/A   Clear
9:56 AM 64.9 °F 15.1 °F 15% 30.41 in 10.0 mi North 9.2 mph - N/A   Clear
10:56 AM 68.0 °F 16.0 °F 14% 30.38 in 10.0 mi North 6.9 mph - N/A   Clear
11:56 AM 70.0 °F 16.0 °F 13% 30.35 in 10.0 mi North 4.6 mph - N/A   Clear
12:56 PM 72.0 °F 15.1 °F 11% 30.31 in 10.0 mi North 3.5 mph - N/A   Clear
1:56 PM 73.0 °F 12.9 °F 10% 30.28 in 10.0 mi NNE 4.6 mph - N/A   Clear
3:56 PM 72.0 °F 12.9 °F 10% 30.27 in 10.0 mi North 4.6 mph - N/A   Clear
4:56 PM 64.9 °F 15.1 °F 15% 30.27 in 10.0 mi NW 3.5 mph - N/A   Clear
5:56 PM 62.1 °F 15.1 °F 16% 30.27 in 10.0 mi WNW 8.1 mph - N/A   Clear
6:56 PM 62.1 °F 14.0 °F 15% 30.27 in 10.0 mi WNW 9.2 mph - N/A   Clear
7:56 PM 59.0 °F 14.0 °F 17% 30.27 in 10.0 mi Calm Calm - N/A   Clear
9:56 PM 55.9 °F 14.0 °F 19% 30.26 in 10.0 mi NW 8.1 mph - N/A   Clear
10:56 PM 55.0 °F 15.1 °F 21% 30.26 in 10.0 mi Calm Calm - N/A   Clear
11:56 PM 52.0 °F 15.1 °F 23% 30.24 in 10.0 mi West 5.8 mph - N/A   Clear